QPF
0.06 0.06 0.04 0.03 0.03 0.03 0.02 0.03 0.03 0.07 0.11 0.12 0.08 0.05 0.02 0.03 0.03 0.02 0.02 0.03 0.03 0.02 0.03 0.03 0.03 0.06 0.07 0.06 0.06 0.06 0.04 0.03 0.03 0.03 0.03 0.05 0.06 0.04 0.04 0.03 0.03 0.03 0.03
0.09 0.09 0.07 0.06 0.04 0.03 0.02 0.03 0.03 0.05 0.08 0.13 0.11 0.04 0.03 0.06 0.02 0.02 0.02 0.03 0.03 0.02 0.02 0.03 0.03 0.04 0.05 0.06 0.06 0.06 0.04 0.03 0.02 0.03 0.05 0.07 0.06 0.04 0.03 0.03 0.02 0.02 0.03
0.21 0.18 0.15 0.09 0.06 0.04 0.04 0.05 0.04 0.04 0.06 0.12 0.10 0.04 0.03 0.03 0.03 0.03 0.03 0.02 0.02 0.02 0.02 0.03 0.03 0.03 0.03 0.04 0.05 0.04 0.04 0.04 0.04 0.06 0.06 0.05 0.05 0.03 0.03 0.03 0.03 0.03 0.04
0.27 0.19 0.16 0.13 0.09 0.06 0.06 0.06 0.05 0.06 0.06 0.10 0.07 0.05 0.03 0.03 0.03 0.03 0.03 0.03 0.03 0.02 0.02 0.02 0.02 0.03 0.03 0.03 0.04 0.04 0.04 0.04 0.04 0.04 0.04 0.04 0.04 0.03 0.03 0.03 0.02 0.03 0.04
0.14 0.12 0.14 0.16 0.12 0.09 0.07 0.06 0.05 0.05 0.04 0.05 0.05 0.06 0.05 0.03 0.02 0.02 0.03 0.04 0.03 0.02 0.02 0.02 0.02 0.02 0.02 0.02 0.03 0.04 0.04 0.03 0.02 0.02 0.02 0.02 0.03 0.03 0.02 0.02 0.02 0.02 0.03
0.10 0.09 0.09 0.12 0.12 0.10 0.08 0.06 0.04 0.04 0.03 0.04 0.04 0.04 0.03 0.02 0.02 0.03 0.03 0.03 0.03 0.03 0.03 0.02 0.01 0.01 0.01 0.01 0.02 0.03 0.03 0.03 0.02 0.02 0.02 0.02 0.02 0.02 0.01 0.02 0.02 0.02 0.03
0.09 0.06 0.05 0.06 0.06 0.07 0.06 0.05 0.05 0.04 0.02 0.03 0.03 0.02 0.02 0.03 0.03 0.03 0.04 0.04 0.03 0.03 0.04 0.04 0.03 0.02 0.02 0.01 0.02 0.02 0.02 0.02 0.02 0.02 0.02 0.01 0.01 0.02 0.01 0.01 0.02 0.02 0.03
0.07 0.04 0.03 0.03 0.04 0.04 0.03 0.03 0.03 0.02 0.01 0.02 0.02 0.02 0.02 0.03 0.03 0.04 0.04 0.04 0.04 0.04 0.04 0.04 0.04 0.03 0.03 0.02 0.01 0.01 0.02 0.02 0.02 0.03 0.02 0.02 0.01 0.02 0.01 0.01 0.02 0.02 0.02
0.07 0.03 0.02 0.03 0.03 0.02 0.02 0.02 0.02 0.02 0.01 0.02 0.02 0.02 0.01 0.02 0.03 0.05 0.05 0.05 0.05 0.04 0.03 0.03 0.03 0.03 0.03 0.02 0.01 0.02 0.01 0.01 0.02 0.03 0.03 0.03 0.02 0.01 0.01 0.01 0.01 0.01 0.02
0.07 0.03 0.02 0.02 0.02 0.02 0.02 0.02 0.02 0.02 0.02 0.02 0.02 0.02 0.02 0.02 0.02 0.03 0.04 0.05 0.04 0.04 0.03 0.04 0.05 0.04 0.03 0.03 0.02 0.02 0.02 0.01 0.01 0.02 0.03 0.04 0.03 0.02 0.01 0.01 0.01 0.01 0.01
0.09 0.06 0.03 0.01 0.01 0.02 0.02 0.02 0.02 0.03 0.01 0.02 0.02 0.02 0.02 0.03 0.02 0.02 0.03 0.04 0.04 0.03 0.04 0.05 0.07 0.06 0.05 0.04 0.03 0.02 0.03 0.03 0.02 0.01 0.02 0.04 0.04 0.03 0.02 0.02 0.02 0.01 0.01
0.08 0.07 0.03 0.01 0.01 0.01 0.01 0.02 0.02 0.02 0.01 0.02 0.02 0.02 0.02 0.02 0.01 0.01 0.01 0.02 0.03 0.04 0.04 0.03 0.05 0.05 0.04 0.03 0.03 0.03 0.04 0.04 0.03 0.02 0.02 0.03 0.03 0.05 0.05 0.04 0.03 0.03 0.02
0.06 0.06 0.04 0.02 0.01 0.01 0.02 0.03 0.02 0.02 0.02 0.01 0.02 0.02 0.02 0.02 0.02 0.02 0.01 0.01 0.01 0.01 0.02 0.02 0.02 0.02 0.03 0.04 0.05 0.05 0.04 0.03 0.03 0.03 0.02 0.02 0.02 0.03 0.05 0.06 0.05 0.05 0.04
0.04 0.05 0.05 0.03 0.03 0.03 0.03 0.03 0.03 0.02 0.02 0.02 0.02 0.02 0.02 0.02 0.03 0.02 0.03 0.03 0.02 0.01 0.01 0.03 0.04 0.04 0.04 0.03 0.05 0.06 0.04 0.04 0.03 0.03 0.03 0.03 0.03 0.04 0.04 0.04 0.05 0.05 0.04
0.06 0.06 0.07 0.08 0.07 0.05 0.03 0.02 0.02 0.02 0.02 0.02 0.02 0.01 0.02 0.02 0.02 0.02 0.04 0.05 0.04 0.02 0.01 0.02 0.02 0.02 0.03 0.03 0.04 0.04 0.04 0.04 0.03 0.03 0.03 0.02 0.03 0.03 0.03 0.03 0.04 0.04 0.04
0.09 0.08 0.10 0.11 0.09 0.07 0.04 0.02 0.02 0.02 0.02 0.02 0.02 0.02 0.02 0.03 0.03 0.03 0.04 0.04 0.05 0.04 0.01 0.01 0.01 0.02 0.02 0.02 0.03 0.03 0.04 0.04 0.04 0.04 0.03 0.02 0.02 0.01 0.01 0.01 0.02 0.03 0.03
0.08 0.07 0.07 0.08 0.07 0.06 0.04 0.03 0.03 0.03 0.02 0.02 0.02 0.03 0.03 0.06 0.07 0.05 0.05 0.04 0.03 0.02 0.01 0.01 0.01 0.01 0.02 0.03 0.03 0.03 0.04 0.05 0.05 0.06 0.04 0.03 0.02 0.01 0.01 0.01 0.01 0.02 0.02
0.05 0.05 0.05 0.04 0.04 0.05 0.04 0.04 0.03 0.02 0.02 0.02 0.03 0.03 0.04 0.05 0.05 0.07 0.05 0.02 0.02 0.01 0.01 0.01 0.01 0.01 0.01 0.01 0.02 0.02 0.03 0.03 0.04 0.04 0.04 0.04 0.04 0.03 0.02 0.01 0.02 0.02 0.01
0.03 0.04 0.04 0.03 0.02 0.04 0.04 0.03 0.02 0.02 0.02 0.02 0.04 0.04 0.04 0.04 0.04 0.05 0.05 0.03 0.02 0.02 0.01 0.01 0.01 0.01 0.01 0.01 0.02 0.02 0.02 0.01 0.01 0.02 0.02 0.02 0.02 0.03 0.03 0.03 0.02 0.01 0.01
0.03 0.04 0.04 0.04 0.05 0.05 0.03 0.03 0.04 0.04 0.05 0.04 0.04 0.04 0.04 0.04 0.02 0.03 0.03 0.03 0.02 0.02 0.02 0.02 0.01 0.01 0.01 0.01 0.01 0.02 0.02 0.02 0.01 0.01 0.02 0.02 0.02 0.02 0.03 0.03 0.02 0.02 0.01
0.04 0.05 0.05 0.05 0.05 0.05 0.04 0.05 0.07 0.06 0.05 0.04 0.04 0.04 0.03 0.02 0.02 0.03 0.03 0.02 0.02 0.03 0.02 0.02 0.02 0.02 0.02 0.02 0.01 0.01 0.01 0.01 0.01 0.01 0.01 0.02 0.02 0.02 0.02 0.02 0.02 0.02 0.02
0.04 0.05 0.04 0.03 0.03 0.03 0.03 0.04 0.04 0.03 0.03 0.03 0.03 0.02 0.02 0.02 0.02 0.02 0.02 0.02 0.02 0.02 0.02 0.02 0.02 0.02 0.03 0.03 0.02 0.02 0.01 0.01 0.01 0.01 0.01 0.01 0.01 0.02 0.02 0.02 0.02 0.02 0.02
0.03 0.03 0.03 0.03 0.02 0.02 0.03 0.03 0.03 0.02 0.02 0.02 0.02 0.01 0.01 0.01 0.02 0.02 0.02 0.02 0.02 0.02 0.01 0.01 0.02 0.02 0.02 0.02 0.03 0.03 0.02 0.02 0.01 0.01 0.01 0.01 0.01 0.01 0.02 0.03 0.03 0.03 0.03
0.03 0.03 0.03 0.02 0.02 0.02 0.03 0.03 0.03 0.03 0.02 0.02 0.02 0.02 0.02 0.01 0.02 0.03 0.02 0.02 0.02 0.02 0.02 0.01 0.01 0.01 0.01 0.01 0.02 0.02 0.02 0.02 0.01 0.01 0.01 0.01 0.00 0.01 0.01 0.02 0.03 0.04 0.03
0.02 0.02 0.02 0.03 0.03 0.02 0.03 0.03 0.03 0.03 0.02 0.02 0.01 0.01 0.01 0.01 0.03 0.03 0.02 0.01 0.01 0.01 0.01 0.01 0.00 0.01 0.01 0.01 0.01 0.02 0.02 0.02 0.01 0.01 0.01 0.00 0.00 0.00 0.00 0.01 0.03 0.03 0.02
0.01 0.01 0.02 0.02 0.02 0.02 0.02 0.02 0.02 0.02 0.02 0.02 0.02 0.01 0.02 0.01 0.02 0.02 0.02 0.01 0.01 0.00 0.00 0.00 0.00 0.00 0.00 0.00 0.01 0.02 0.02 0.02 0.01 0.01 0.01 0.01 0.00 0.00 0.01 0.01 0.02 0.03 0.03
MSLP
1011.28 1011.60 1011.84 1012.04 1012.22 1012.43 1012.72 1013.11 1013.60 1014.18 1014.79 1015.40 1015.96 1016.44 1016.82 1017.10 1017.30 1017.44 1017.55 1017.65 1017.76 1017.87 1017.99 1018.11 1018.22 1018.32 1018.39 1018.44 1018.47 1018.46 1018.41 1018.32 1018.18 1018.00 1017.77 1017.50 1017.21 1016.89 1016.56 1016.23 1015.90 1015.58 1015.28
1011.70 1012.00 1012.24 1012.43 1012.62 1012.85 1013.15 1013.55 1014.05 1014.64 1015.28 1015.93 1016.54 1017.07 1017.49 1017.81 1018.02 1018.16 1018.25 1018.33 1018.41 1018.50 1018.61 1018.74 1018.87 1018.98 1019.07 1019.12 1019.12 1019.08 1018.99 1018.86 1018.70 1018.51 1018.30 1018.08 1017.85 1017.61 1017.35 1017.08 1016.80 1016.50 1016.20
1012.06 1012.34 1012.59 1012.81 1013.04 1013.31 1013.65 1014.08 1014.61 1015.23 1015.90 1016.57 1017.21 1017.77 1018.22 1018.55 1018.76 1018.88 1018.95 1018.98 1019.03 1019.09 1019.18 1019.30 1019.44 1019.56 1019.65 1019.69 1019.67 1019.60 1019.48 1019.31 1019.12 1018.92 1018.73 1018.54 1018.37 1018.19 1018.01 1017.82 1017.59 1017.34 1017.06
1012.35 1012.62 1012.88 1013.15 1013.45 1013.78 1014.19 1014.67 1015.24 1015.88 1016.56 1017.25 1017.90 1018.47 1018.93 1019.26 1019.46 1019.56 1019.59 1019.59 1019.59 1019.62 1019.68 1019.78 1019.90 1020.01 1020.10 1020.13 1020.10 1020.00 1019.85 1019.65 1019.44 1019.23 1019.04 1018.87 1018.73 1018.61 1018.49 1018.35 1018.18 1017.98 1017.74
1012.59 1012.84 1013.13 1013.46 1013.82 1014.24 1014.71 1015.25 1015.85 1016.50 1017.19 1017.88 1018.53 1019.09 1019.55 1019.88 1020.08 1020.17 1020.17 1020.14 1020.10 1020.08 1020.10 1020.17 1020.26 1020.35 1020.42 1020.44 1020.39 1020.28 1020.11 1019.89 1019.66 1019.44 1019.25 1019.09 1018.97 1018.86 1018.77 1018.67 1018.54 1018.38 1018.18
1012.79 1013.03 1013.35 1013.73 1014.17 1014.65 1015.18 1015.76 1016.38 1017.03 1017.71 1018.38 1019.01 1019.57 1020.03 1020.37 1020.58 1020.67 1020.68 1020.63 1020.56 1020.51 1020.49 1020.51 1020.56 1020.62 1020.66 1020.66 1020.60 1020.47 1020.29 1020.08 1019.84 1019.61 1019.41 1019.25 1019.12 1019.01 1018.92 1018.82 1018.70 1018.56 1018.39
1012.99 1013.23 1013.57 1013.99 1014.48 1015.02 1015.58 1016.18 1016.79 1017.42 1018.06 1018.69 1019.31 1019.86 1020.33 1020.70 1020.94 1021.07 1021.10 1021.06 1020.99 1020.92 1020.87 1020.84 1020.84 1020.86 1020.86 1020.83 1020.76 1020.63 1020.45 1020.24 1020.02 1019.79 1019.59 1019.41 1019.25 1019.12 1019.00 1018.87 1018.73 1018.58 1018.41
1013.22 1013.46 1013.81 1014.26 1014.78 1015.34 1015.92 1016.49 1017.07 1017.65 1018.24 1018.83 1019.41 1019.96 1020.44 1020.85 1021.15 1021.34 1021.43 1021.44 1021.39 1021.32 1021.25 1021.18 1021.14 1021.10 1021.06 1021.00 1020.91 1020.78 1020.62 1020.43 1020.22 1020.01 1019.81 1019.62 1019.44 1019.27 1019.10 1018.92 1018.74 1018.55 1018.36
1013.52 1013.75 1014.11 1014.57 1015.10 1015.65 1016.20 1016.73 1017.25 1017.76 1018.28 1018.80 1019.34 1019.88 1020.38 1020.84 1021.21 1021.48 1021.65 1021.73 1021.73 1021.69 1021.61 1021.53 1021.45 1021.36 1021.28 1021.18 1021.07 1020.94 1020.79 1020.62 1020.44 1020.26 1020.07 1019.89 1019.69 1019.49 1019.27 1019.04 1018.80 1018.56 1018.32
1013.87 1014.11 1014.47 1014.93 1015.43 1015.95 1016.46 1016.93 1017.37 1017.79 1018.22 1018.68 1019.17 1019.68 1020.19 1020.68 1021.12 1021.48 1021.74 1021.90 1021.98 1021.98 1021.93 1021.84 1021.73 1021.61 1021.49 1021.36 1021.23 1021.09 1020.95 1020.81 1020.66 1020.51 1020.35 1020.18 1019.99 1019.77 1019.52 1019.25 1018.96 1018.66 1018.37
1014.27 1014.52 1014.88 1015.32 1015.80 1016.28 1016.72 1017.12 1017.47 1017.81 1018.15 1018.53 1018.95 1019.42 1019.92 1020.43 1020.91 1021.34 1021.68 1021.93 1022.09 1022.15 1022.14 1022.07 1021.96 1021.82 1021.66 1021.50 1021.34 1021.19 1021.05 1020.93 1020.81 1020.70 1020.58 1020.45 1020.28 1020.07 1019.82 1019.53 1019.21 1018.87 1018.54
1014.68 1014.94 1015.30 1015.73 1016.18 1016.61 1017.00 1017.33 1017.61 1017.87 1018.13 1018.42 1018.77 1019.18 1019.64 1020.13 1020.63 1021.09 1021.50 1021.82 1022.05 1022.18 1022.23 1022.20 1022.10 1021.95 1021.78 1021.59 1021.40 1021.22 1021.07 1020.95 1020.86 1020.78 1020.70 1020.61 1020.49 1020.32 1020.09 1019.82 1019.50 1019.16 1018.80
1015.08 1015.36 1015.71 1016.12 1016.54 1016.94 1017.29 1017.57 1017.80 1018.00 1018.19 1018.41 1018.68 1019.01 1019.41 1019.85 1020.32 1020.79 1021.22 1021.59 1021.88 1022.08 1022.19 1022.21 1022.14 1022.01 1021.82 1021.61 1021.39 1021.18 1021.01 1020.87 1020.78 1020.72 1020.68 1020.63 1020.57 1020.45 1020.29 1020.06 1019.78 1019.46 1019.11
1015.44 1015.73 1016.08 1016.47 1016.87 1017.24 1017.57 1017.84 1018.05 1018.21 1018.36 1018.52 1018.72 1018.98 1019.29 1019.66 1020.08 1020.50 1020.93 1021.31 1021.64 1021.90 1022.07 1022.14 1022.12 1022.01 1021.83 1021.60 1021.35 1021.10 1020.88 1020.71 1020.60 1020.54 1020.52 1020.51 1020.50 1020.45 1020.35 1020.19 1019.98 1019.71 1019.39
1015.76 1016.04 1016.38 1016.76 1017.14 1017.51 1017.84 1018.11 1018.33 1018.50 1018.64 1018.77 1018.92 1019.10 1019.34 1019.62 1019.95 1020.31 1020.69 1021.07 1021.42 1021.71 1021.93 1022.06 1022.09 1022.01 1021.84 1021.61 1021.32 1021.03 1020.76 1020.54 1020.38 1020.30 1020.27 1020.28 1020.30 1020.31 1020.28 1020.20 1020.05 1019.85 1019.59
1016.03 1016.31 1016.63 1016.98 1017.35 1017.72 1018.07 1018.37 1018.62 1018.83 1018.99 1019.13 1019.25 1019.39 1019.55 1019.75 1019.99 1020.27 1020.59 1020.93 1021.27 1021.59 1021.85 1022.03 1022.10 1022.07 1021.92 1021.68 1021.37 1021.04 1020.71 1020.43 1020.21 1020.08 1020.01 1020.01 1020.04 1020.08 1020.10 1020.07 1019.99 1019.85 1019.65
1016.27 1016.53 1016.83 1017.16 1017.52 1017.89 1018.26 1018.60 1018.91 1019.17 1019.38 1019.55 1019.68 1019.80 1019.91 1020.04 1020.20 1020.41 1020.66 1020.95 1021.27 1021.58 1021.87 1022.08 1022.20 1022.21 1022.09 1021.86 1021.54 1021.17 1020.79 1020.44 1020.16 1019.95 1019.84 1019.79 1019.79 1019.82 1019.85 1019.84 1019.80 1019.71 1019.56
1016.50 1016.74 1017.01 1017.31 1017.66 1018.02 1018.40 1018.79 1019.15 1019.47 1019.75 1019.97 1020.14 1020.26 1020.35 1020.44 1020.54 1020.68 1020.87 1021.11 1021.39 1021.69 1021.98 1022.22 1022.38 1022.42 1022.33 1022.12 1021.81 1021.42 1021.01 1020.61 1020.26 1019.98 1019.79 1019.67 1019.62 1019.60 1019.59 1019.57 1019.52 1019.44 1019.32
1016.71 1016.95 1017.19 1017.47 1017.79 1018.14 1018.53 1018.93 1019.33 1019.71 1020.05 1020.33 1020.55 1020.70 1020.80 1020.87 1020.94 1021.03 1021.17 1021.35 1021.59 1021.87 1022.15 1022.40 1022.58 1022.66 1022.61 1022.43 1022.14 1021.76 1021.33 1020.90 1020.50 1020.15 1019.88 1019.68 1019.54 1019.44 1019.37 1019.29 1019.20 1019.09 1018.96
1016.91 1017.15 1017.39 1017.64 1017.93 1018.26 1018.63 1019.03 1019.45 1019.87 1020.25 1020.58 1020.85 1021.05 1021.17 1021.25 1021.31 1021.37 1021.46 1021.61 1021.80 1022.05 1022.31 1022.56 1022.75 1022.86 1022.84 1022.71 1022.45 1022.10 1021.69 1021.25 1020.82 1020.43 1020.09 1019.81 1019.57 1019.37 1019.20 1019.03 1018.86 1018.69 1018.52
1017.06 1017.33 1017.58 1017.83 1018.09 1018.39 1018.73 1019.11 1019.52 1019.94 1020.34 1020.71 1021.01 1021.25 1021.41 1021.51 1021.57 1021.62 1021.69 1021.79 1021.95 1022.16 1022.39 1022.62 1022.82 1022.94 1022.97 1022.88 1022.68 1022.38 1022.00 1021.58 1021.15 1020.74 1020.35 1019.99 1019.67 1019.37 1019.08 1018.81 1018.55 1018.29 1018.06
1017.14 1017.47 1017.75 1018.01 1018.26 1018.53 1018.83 1019.17 1019.54 1019.93 1020.33 1020.71 1021.04 1021.30 1021.50 1021.62 1021.69 1021.74 1021.79 1021.87 1021.99 1022.15 1022.35 1022.56 1022.75 1022.88 1022.94 1022.90 1022.76 1022.52 1022.20 1021.82 1021.41 1020.99 1020.58 1020.17 1019.78 1019.39 1019.01 1018.63 1018.27 1017.92 1017.61
1017.12 1017.53 1017.87 1018.16 1018.42 1018.66 1018.92 1019.21 1019.53 1019.89 1020.26 1020.62 1020.95 1021.23 1021.45 1021.60 1021.69 1021.74 1021.78 1021.83 1021.92 1022.04 1022.20 1022.37 1022.54 1022.68 1022.76 1022.76 1022.67 1022.49 1022.23 1021.91 1021.54 1021.14 1020.73 1020.30 1019.86 1019.41 1018.95 1018.49 1018.04 1017.61 1017.21
1016.99 1017.49 1017.91 1018.24 1018.52 1018.76 1018.99 1019.24 1019.51 1019.82 1020.15 1020.49 1020.81 1021.10 1021.33 1021.49 1021.60 1021.66 1021.69 1021.73 1021.78 1021.86 1021.97 1022.11 1022.25 1022.38 1022.46 1022.48 1022.43 1022.30 1022.10 1021.83 1021.51 1021.15 1020.75 1020.32 1019.86 1019.38 1018.88 1018.36 1017.85 1017.35 1016.90
1016.72 1017.32 1017.82 1018.22 1018.54 1018.79 1019.02 1019.24 1019.48 1019.75 1020.04 1020.36 1020.67 1020.95 1021.19 1021.37 1021.49 1021.56 1021.59 1021.61 1021.63 1021.67 1021.74 1021.84 1021.94 1022.04 1022.11 1022.14 1022.11 1022.01 1021.85 1021.62 1021.34 1021.01 1020.64 1020.23 1019.78 1019.29 1018.78 1018.24 1017.70 1017.16 1016.66
1016.34 1017.02 1017.60 1018.07 1018.44 1018.73 1018.97 1019.19 1019.42 1019.67 1019.96 1020.26 1020.56 1020.85 1021.09 1021.28 1021.41 1021.49 1021.52 1021.52 1021.52 1021.53 1021.56 1021.61 1021.68 1021.74 1021.78 1021.80 1021.76 1021.67 1021.53 1021.33 1021.07 1020.77 1020.42 1020.03 1019.61 1019.14 1018.64 1018.10 1017.56 1017.01 1016.47
Thickness
5744 5742 5741 5739 5739 5738 5737 5736 5735 5734 5733 5732 5731 5730 5729 5727 5726 5725 5724 5724 5723 5722 5722 5721 5720 5719 5718 5717 5716 5715 5714 5713 5712 5711 5710 5709 5708 5706 5705 5705 5704 5703 5703
5742 5740 5737 5736 5735 5735 5734 5733 5732 5731 5730 5729 5728 5727 5726 5725 5723 5722 5722 5721 5720 5719 5719 5718 5717 5716 5715 5714 5713 5712 5711 5710 5709 5708 5707 5706 5705 5703 5702 5702 5701 5701 5700
5739 5737 5734 5733 5732 5731 5730 5729 5728 5727 5726 5725 5724 5724 5723 5722 5721 5720 5719 5719 5718 5717 5716 5715 5714 5713 5712 5711 5710 5709 5708 5707 5706 5705 5704 5703 5702 5701 5700 5699 5698 5698 5698
5738 5735 5732 5730 5729 5728 5727 5725 5723 5722 5722 5721 5720 5720 5720 5719 5719 5718 5717 5716 5715 5714 5713 5712 5711 5709 5709 5708 5707 5706 5705 5704 5703 5702 5701 5700 5699 5698 5697 5696 5696 5695 5695
5736 5733 5730 5727 5726 5725 5723 5722 5720 5719 5717 5717 5717 5717 5716 5716 5716 5716 5715 5714 5712 5711 5710 5709 5707 5706 5705 5705 5704 5703 5702 5701 5700 5699 5698 5697 5696 5696 5694 5693 5693 5692 5692
5732 5730 5727 5725 5723 5721 5719 5719 5716 5716 5715 5714 5714 5713 5712 5713 5713 5712 5712 5711 5709 5708 5707 5706 5705 5704 5702 5702 5701 5700 5699 5698 5697 5696 5695 5694 5693 5693 5692 5691 5690 5689 5689
5729 5727 5724 5722 5720 5718 5716 5715 5713 5711 5710 5710 5707 5704 5705 5708 5708 5709 5709 5708 5707 5706 5705 5703 5702 5701 5699 5698 5698 5697 5696 5695 5694 5693 5692 5691 5690 5690 5689 5688 5687 5686 5685
5726 5724 5721 5719 5717 5715 5713 5711 5710 5707 5706 5706 5702 5696 5693 5696 5701 5705 5705 5704 5704 5703 5701 5701 5699 5698 5696 5695 5695 5694 5693 5692 5691 5690 5689 5688 5687 5686 5685 5685 5684 5683 5682
5723 5721 5719 5717 5714 5713 5710 5708 5707 5705 5701 5701 5702 5696 5689 5687 5691 5697 5700 5701 5700 5699 5698 5697 5696 5694 5693 5692 5691 5690 5689 5689 5688 5687 5686 5685 5684 5683 5682 5681 5680 5680 5679
5719 5718 5716 5714 5712 5710 5707 5706 5705 5703 5700 5697 5697 5697 5696 5693 5688 5686 5691 5695 5696 5695 5694 5694 5693 5691 5690 5689 5688 5688 5687 5685 5684 5684 5683 5682 5681 5680 5679 5678 5677 5676 5676
5715 5714 5713 5710 5708 5706 5705 5703 5701 5700 5698 5695 5693 5692 5691 5690 5689 5684 5682 5685 5689 5691 5691 5691 5690 5688 5688 5686 5685 5685 5684 5682 5681 5680 5679 5679 5678 5676 5676 5674 5673 5673 5672
5710 5710 5709 5707 5705 5703 5701 5700 5698 5696 5695 5694 5692 5690 5688 5686 5684 5682 5679 5678 5679 5684 5687 5688 5687 5686 5685 5684 5683 5682 5681 5679 5677 5676 5676 5675 5674 5673 5672 5671 5670 5669 5668
5705 5705 5705 5703 5701 5700 5699 5697 5695 5693 5692 5691 5689 5688 5687 5686 5685 5682 5678 5675 5674 5677 5680 5682 5683 5683 5682 5681 5680 5679 5677 5676 5674 5673 5672 5671 5671 5669 5669 5668 5667 5666 5665
5702 5702 5701 5699 5698 5696 5695 5693 5691 5689 5689 5688 5687 5686 5685 5684 5683 5682 5678 5673 5669 5669 5672 5675 5678 5678 5678 5678 5677 5675 5674 5672 5671 5670 5669 5668 5667 5666 5665 5664 5663 5662 5661
5699 5698 5696 5694 5693 5692 5691 5689 5687 5685 5685 5684 5684 5683 5682 5681 5681 5680 5678 5675 5669 5664 5665 5669 5671 5674 5673 5673 5672 5671 5670 5669 5668 5667 5666 5665 5664 5663 5662 5660 5659 5658 5657
5694 5693 5692 5690 5688 5686 5685 5684 5683 5682 5681 5681 5680 5679 5678 5678 5677 5676 5675 5673 5670 5665 5662 5665 5666 5668 5668 5667 5667 5666 5666 5665 5664 5663 5662 5662 5661 5660 5658 5657 5655 5654 5653
5689 5688 5687 5685 5683 5681 5680 5679 5678 5678 5677 5676 5676 5675 5674 5674 5672 5671 5670 5669 5666 5663 5659 5660 5662 5663 5662 5661 5661 5661 5661 5661 5660 5659 5659 5658 5657 5656 5654 5653 5651 5650 5649
5685 5684 5682 5680 5679 5677 5676 5674 5673 5673 5672 5671 5671 5670 5670 5670 5668 5666 5665 5663 5662 5660 5657 5654 5655 5656 5656 5656 5656 5655 5656 5656 5655 5655 5655 5654 5653 5652 5650 5649 5648 5646 5645
5679 5678 5677 5675 5674 5673 5672 5671 5670 5669 5668 5668 5667 5666 5666 5665 5663 5662 5660 5659 5657 5657 5654 5651 5650 5650 5650 5651 5650 5650 5650 5650 5650 5650 5650 5650 5649 5648 5646 5645 5644 5643 5641
5673 5672 5672 5671 5669 5668 5668 5667 5666 5665 5664 5663 5663 5662 5661 5660 5659 5658 5656 5654 5653 5651 5649 5646 5645 5644 5644 5645 5644 5643 5643 5644 5644 5645 5645 5645 5644 5643 5642 5642 5640 5639 5638
5669 5667 5666 5665 5664 5664 5664 5663 5661 5660 5658 5658 5658 5658 5658 5657 5657 5655 5654 5651 5648 5645 5642 5640 5639 5638 5638 5639 5639 5639 5638 5637 5638 5639 5638 5639 5639 5638 5638 5637 5636 5635 5633
5663 5662 5661 5660 5659 5660 5660 5659 5657 5655 5654 5653 5652 5652 5652 5652 5652 5651 5650 5648 5646 5642 5638 5636 5635 5634 5635 5635 5635 5634 5632 5631 5631 5634 5632 5633 5633 5632 5633 5632 5632 5631 5629
5656 5655 5654 5654 5654 5654 5655 5654 5653 5651 5649 5648 5647 5646 5647 5647 5646 5644 5643 5642 5641 5640 5638 5635 5632 5632 5632 5632 5631 5629 5628 5627 5627 5630 5627 5627 5628 5627 5629 5629 5629 5628 5626
5650 5649 5649 5649 5648 5649 5649 5648 5647 5645 5644 5643 5643 5642 5641 5641 5641 5639 5637 5636 5635 5635 5634 5633 5632 5631 5631 5630 5628 5627 5626 5624 5624 5624 5623 5621 5623 5623 5626 5626 5625 5624 5623
5644 5644 5644 5643 5643 5643 5643 5642 5641 5638 5637 5637 5638 5638 5637 5636 5635 5634 5631 5629 5628 5629 5630 5629 5629 5628 5627 5626 5624 5621 5620 5618 5617 5618 5618 5616 5618 5617 5619 5620 5621 5620 5618
5639 5638 5638 5638 5638 5637 5637 5636 5635 5633 5631 5632 5632 5632 5632 5631 5630 5628 5626 5624 5622 5623 5623 5623 5622 5622 5622 5621 5621 5619 5617 5614 5612 5612 5615 5612 5612 5610 5611 5614 5615 5615 5613